| time (UTC) | temp F | wind direction | speed knots | gust knots | rain 1hr in | rain 24hr in | rain mn in | humidity % | barometer mb |
| 20260503021552 | 42 | 296 | 3.5 | 8.7 | 0.00 | 0.02 | 0.00 | 92 | 1012.4 |
| 20260503020053 | 42 | 299 | 2.6 | 7.0 | 0.00 | 0.02 | 0.00 | 92 | 1012.4 |
| 20260503014605 | 42 | 299 | 1.7 | 7.8 | 0.00 | 0.02 | 0.00 | 93 | 1012.4 |
| 20260503013047 | 42 | 338 | 3.5 | 7.8 | 0.00 | 0.02 | 0.00 | 93 | 1012.3 |
| 20260503011550 | 42 | 328 | 2.6 | 7.8 | 0.00 | 0.02 | 0.00 | 92 | 1012.4 |
| 20260503010043 | 42 | 359 | 1.7 | 7.8 | 0.00 | 0.02 | 0.00 | 92 | 1012.3 |
| 20260503004542 | 43 | 312 | 2.6 | 7.8 | 0.00 | 0.02 | 0.00 | 93 | 1012.5 |
| 20260503003039 | 43 | 339 | 2.6 | 7.8 | 0.00 | 0.02 | 0.00 | 93 | 1012.4 |
| 20260503001551 | 43 | 336 | 3.5 | 8.7 | 0.00 | 0.02 | 0.00 | 93 | 1012.6 |
| 20260503000034 | 44 | 354 | 2.6 | 7.0 | 0.00 | 0.02 | 0.00 | 93 | 1012.5 |
| 20260502234539 | 44 | 337 | 1.7 | 7.0 | 0.00 | 0.02 | 0.00 | 93 | 1012.4 |
| 20260502233032 | 44 | 359 | 1.7 | 5.2 | 0.00 | 0.02 | 0.00 | 93 | 1012.5 |
| 20260502231531 | 44 | 319 | 2.6 | 8.7 | 0.00 | 0.02 | 0.00 | 93 | 1012.5 |
| 20260502230034 | 45 | 293 | 1.7 | 5.2 | 0.00 | 0.02 | 0.00 | 93 | 1012.5 |
| 20260502224527 | 45 | 289 | 1.7 | 7.0 | 0.00 | 0.02 | 0.00 | 92 | 1012.6 |
| 20260502223027 | 45 | 348 | 0.9 | 4.3 | 0.00 | 0.02 | 0.00 | 92 | 1012.4 |
| 20260502221526 | 45 | 308 | 2.6 | 7.0 | 0.00 | 0.02 | 0.00 | 92 | 1012.6 |
| 20260502220027 | 45 | 303 | 2.6 | 7.0 | 0.00 | 0.02 | 0.00 | 92 | 1012.5 |
| 20260502214521 | 45 | 359 | 2.6 | 8.7 | 0.00 | 0.02 | 0.02 | 91 | 1012.4 |
| 20260502213020 | 45 | 359 | 2.6 | 5.2 | 0.00 | 0.02 | 0.02 | 91 | 1012.6 |
| 20260502211519 | 46 | 304 | 2.6 | 7.0 | 0.00 | 0.02 | 0.02 | 90 | 1012.6 |
| 20260502210016 | 46 | 324 | 0.9 | 7.0 | 0.00 | 0.02 | 0.02 | 89 | 1012.5 |
| 20260502204515 | 46 | 314 | 3.5 | 7.0 | 0.00 | 0.02 | 0.02 | 88 | 1012.4 |
| 20260502203013 | 47 | 298 | 1.7 | 4.3 | 0.00 | 0.02 | 0.02 | 86 | 1012.4 |
| 20260502201512 | 47 | 305 | 1.7 | 4.3 | 0.00 | 0.02 | 0.02 | 85 | 1012.3 |
| 20260502200011 | 48 | 322 | 2.6 | 5.2 | 0.00 | 0.02 | 0.02 | 85 | 1012.3 |
| 20260502194510 | 48 | 296 | 1.7 | 3.5 | 0.00 | 0.02 | 0.02 | 85 | 1012.1 |
| 20260502193011 | 48 | 299 | 2.6 | 4.3 | 0.00 | 0.02 | 0.02 | 86 | 1011.9 |
| 20260502191510 | 49 | 324 | 3.5 | 8.7 | 0.00 | 0.02 | 0.02 | 86 | 1012.0 |
| 20260502190013 | 49 | 287 | 3.5 | 7.8 | 0.00 | 0.02 | 0.02 | 84 | 1012.0 |
| 20260502184523 | 49 | 310 | 1.7 | 7.0 | 0.00 | 0.02 | 0.02 | 82 | 1011.9 |
| 20260502183024 | 49 | 308 | 1.7 | 5.2 | 0.00 | 0.02 | 0.02 | 82 | 1011.9 |
| 20260502181507 | 49 | 320 | 2.6 | 7.8 | 0.00 | 0.02 | 0.02 | 81 | 1011.8 |
| 20260502163007 | 52 | 334 | 0.9 | 5.2 | 0.00 | 0.02 | 0.02 | 76 | 1011.7 |
| 20260502161505 | 52 | 341 | 0.9 | 4.3 | 0.00 | 0.02 | 0.02 | 76 | 1011.8 |
| 20260502151608 | 53 | 8 | 1.7 | 7.0 | 0.00 | 0.02 | 0.02 | 71 | 1012.1 |
| 20260502123040 | 49 | 10 | 1.7 | 4.3 | 0.02 | 0.02 | 0.02 | 79 | 1013.4 |
| 20260502121548 | 48 | 359 | 0.0 | 3.5 | 0.02 | 0.02 | 0.02 | 79 | 1013.2 |
| 20260502114541 | 49 | 326 | 1.7 | 2.6 | 0.02 | 0.02 | 0.02 | 77 | 1013.5 |
| 20260502113038 | 50 | 270 | 0.0 | 2.6 | 0.00 | 0.00 | 0.00 | 76 | 1013.4 |
| 20260502111537 | 50 | 270 | 0.0 | 1.7 | 0.00 | 0.00 | 0.00 | 75 | 1013.1 |
| 20260502110037 | 51 | 270 | 0.0 | 2.6 | 0.00 | 0.00 | 0.00 | 73 | 1013.0 |
| 20260502104535 | 50 | 277 | 0.0 | 2.6 | 0.00 | 0.00 | 0.00 | 73 | 1013.1 |
| 20260502103040 | 50 | 349 | 0.0 | 1.7 | 0.00 | 0.00 | 0.00 | 71 | 1013.5 |
| 20260502101542 | 50 | 359 | 0.0 | 1.7 | 0.00 | 0.00 | 0.00 | 76 | 1013.6 |
| 20260502091528 | 51 | 359 | 0.0 | 0.9 | 0.00 | 0.00 | 0.00 | 69 | 1014.0 |
| 20260502071524 | 51 | 294 | 0.0 | 2.6 | 0.00 | 0.00 | 0.00 | 68 | 1014.1 |
| 20260502070022 | 52 | 294 | 0.9 | 2.6 | 0.00 | 0.00 | 0.00 | 63 | 1014.2 |
| 20260502064520 | 53 | 147 | 0.0 | 0.0 | 0.00 | 0.00 | 0.00 | 60 | 1014.0 |
| 20260502063026 | 52 | 147 | 0.0 | 0.0 | 0.00 | 0.00 | 0.00 | 60 | 1014.1 |
| 20260502061519 | 51 | 147 | 0.0 | 0.0 | 0.00 | 0.00 | 0.00 | 61 | 1014.2 |
| 20260502060018 | 50 | 147 | 0.0 | 0.9 | 0.00 | 0.00 | 0.00 | 65 | 1014.1 |
| 20260502054517 | 49 | 147 | 0.0 | 0.9 | 0.00 | 0.00 | 0.00 | 66 | 1014.2 |
| 20260502053017 | 49 | 147 | 0.0 | 0.9 | 0.00 | 0.00 | 0.00 | 64 | 1014.3 |
| 20260502051516 | 48 | 147 | 0.0 | 0.9 | 0.00 | 0.00 | 0.00 | 66 | 1014.4 |
| 20260502050014 | 48 | 147 | 0.0 | 0.9 | 0.00 | 0.00 | 0.00 | 62 | 1014.5 |
| 20260502044514 | 47 | 147 | 0.0 | 1.7 | 0.00 | 0.00 | 0.00 | 62 | 1014.5 |
| 20260502043013 | 46 | 147 | 0.9 | 2.6 | 0.00 | 0.00 | 0.00 | 62 | 1014.4 |
| 20260502041511 | 46 | 150 | 0.0 | 0.0 | 0.00 | 0.00 | 0.00 | 61 | 1014.9 |
| 20260502040009 | 46 | 150 | 0.0 | 0.9 | 0.00 | 0.00 | 0.00 | 61 | 1015.0 |
| 20260502034510 | 45 | 150 | 0.0 | 0.9 | 0.00 | 0.00 | 0.00 | 62 | 1015.0 |
| 20260502033007 | 46 | 150 | 0.0 | 2.6 | 0.00 | 0.00 | 0.00 | 62 | 1015.1 |
| 20260502031504 | 46 | 153 | 0.0 | 0.0 | 0.00 | 0.00 | 0.00 | 61 | 1015.4 |
| 20260502030000 | 47 | 153 | 0.0 | 0.0 | 0.00 | 0.00 | 0.00 | 60 | 1015.4 |
| 20260502024559 | 47 | 153 | 0.0 | 2.6 | 0.00 | 0.00 | 0.00 | 60 | 1015.6 |
| 20260502023059 | 48 | 152 | 0.0 | 2.6 | 0.00 | 0.00 | 0.00 | 60 | 1016.0 |